When you browse on this site, cookies collect data to enhance your experience and personalize the content and advertising you see.
Visit our Privacy Policy to learn more. By continuing to use the site, you agree to this use of cookies and data.
EN

Hourly Weather Wagadugu

Today, 26 September, Saturday

Time Temperature Precipitation Wind Pressure Humidity
00:00 +29°C° 0 mm 2 mps 733 mmHg 62%
01:00 +29°C° 0 mm 2 mps 732 mmHg 62%
02:00 +29°C° 0 mm 2 mps 732 mmHg 62%
03:00 +29°C° 0 mm 2 mps 732 mmHg 63%
04:00 +28°C° 0.3 mm 2 mps 732 mmHg 66%
05:00 +27°C° 0.3 mm 3 mps 732 mmHg 69%
06:00 +27°C° 0.3 mm 3 mps 732 mmHg 72%
07:00 +28°C° 0.1 mm 3 mps 733 mmHg 68%
08:00 +29°C° 0.1 mm 4 mps 733 mmHg 64%
09:00 +30°C° 0.1 mm 4 mps 733 mmHg 59%
10:00 +33°C° 0 mm 4 mps 733 mmHg 54%
11:00 +34°C° 0 mm 4 mps 733 mmHg 50%
12:00 +36°C° 0 mm 3 mps 732 mmHg 45%
13:00 +36°C° 0 mm 3 mps 732 mmHg 43%
14:00 +37°C° 0 mm 3 mps 731 mmHg 42%
15:00 +37°C° 0 mm 2 mps 730 mmHg 40%
16:00 +36°C° 0 mm 3 mps 730 mmHg 46%
17:00 +34°C° 0 mm 3 mps 730 mmHg 51%
18:00 +33°C° 0 mm 3 mps 730 mmHg 57%
19:00 +31°C° 0.1 mm 3 mps 731 mmHg 60%
20:00 +30°C° 0.1 mm 3 mps 731 mmHg 63%
21:00 +29°C° 0.1 mm 3 mps 732 mmHg 66%
22:00 +28°C° 1.6 mm 3 mps 732 mmHg 71%
23:00 +28°C° 1.6 mm 2 mps 732 mmHg 76%

Tomorrow, 27 September, Sunday

Time Temperature Precipitation Wind Pressure Humidity
00:00 +27°C° 1.6 mm 2 mps 732 mmHg 81%
01:00 +27°C° 0.1 mm 2 mps 731 mmHg 81%
02:00 +27°C° 0.1 mm 3 mps 731 mmHg 80%
03:00 +27°C° 0.1 mm 4 mps 730 mmHg 80%
04:00 +26°C° 0 mm 4 mps 731 mmHg 81%
05:00 +26°C° 0 mm 4 mps 731 mmHg 82%
06:00 +26°C° 0 mm 4 mps 731 mmHg 83%
07:00 +27°C° 0 mm 4 mps 731 mmHg 79%
08:00 +28°C° 0 mm 4 mps 732 mmHg 76%
09:00 +29°C° 0 mm 5 mps 732 mmHg 72%
10:00 +30°C° 0 mm 4 mps 732 mmHg 66%
11:00 +33°C° 0 mm 4 mps 732 mmHg 61%
12:00 +34°C° 0 mm 4 mps 732 mmHg 55%
13:00 +34°C° 0 mm 4 mps 731 mmHg 52%
14:00 +35°C° 0 mm 3 mps 731 mmHg 49%
15:00 +36°C° 0 mm 3 mps 730 mmHg 46%
16:00 +35°C° 0 mm 3 mps 730 mmHg 50%
17:00 +34°C° 0 mm 2 mps 730 mmHg 54%
18:00 +31°C° 0 mm 2 mps 730 mmHg 58%
19:00 +31°C° 0.3 mm 2 mps 731 mmHg 61%
20:00 +30°C° 0.3 mm 2 mps 731 mmHg 65%
21:00 +29°C° 0.3 mm 2 mps 732 mmHg 68%
22:00 +29°C° 0.1 mm 2 mps 732 mmHg 70%
23:00 +28°C° 0.1 mm 2 mps 732 mmHg 71%

Day after tomorrow, 28 September, Monday

Time Temperature Precipitation Wind Pressure Humidity
00:00 +28°C° 0.1 mm 2 mps 732 mmHg 73%
01:00 +27°C° 0.6 mm 2 mps 732 mmHg 76%
02:00 +27°C° 0.6 mm 2 mps 731 mmHg 79%
03:00 +26°C° 0.6 mm 2 mps 731 mmHg 82%
04:00 +26°C° 0.1 mm 2 mps 731 mmHg 83%
05:00 +26°C° 0.1 mm 2 mps 731 mmHg 84%
06:00 +26°C° 0.1 mm 2 mps 732 mmHg 84%
07:00 +27°C° 0 mm 2 mps 732 mmHg 78%
08:00 +29°C° 0 mm 2 mps 733 mmHg 73%
09:00 +30°C° 0 mm 2 mps 733 mmHg 67%
10:00 +32°C° 0 mm 2 mps 733 mmHg 59%
11:00 +34°C° 0 mm 2 mps 732 mmHg 52%
12:00 +36°C° 0 mm 2 mps 732 mmHg 45%
13:00 +37°C° 0 mm 2 mps 732 mmHg 42%
14:00 +37°C° 0 mm 2 mps 731 mmHg 39%
15:00 +38°C° 0 mm 2 mps 731 mmHg 36%
16:00 +36°C° 0.1 mm 3 mps 731 mmHg 45%
17:00 +34°C° 0.1 mm 3 mps 730 mmHg 53%
18:00 +32°C° 0.1 mm 4 mps 730 mmHg 62%
19:00 +30°C° 0.1 mm 4 mps 731 mmHg 64%
20:00 +29°C° 0.1 mm 4 mps 731 mmHg 65%
21:00 +29°C° 0.1 mm 4 mps 732 mmHg 67%
22:00 +28°C° 0 mm 3 mps 732 mmHg 68%
23:00 +28°C° 0 mm 2 mps 732 mmHg 68%

29 September, Tuesday

Time Temperature Precipitation Wind Pressure Humidity
00:00 +28°C° 0 mm 2 mps 732 mmHg 69%
01:00 +28°C° 0 mm 2 mps 732 mmHg 70%
02:00 +27°C° 0 mm 2 mps 731 mmHg 70%
03:00 +27°C° 0 mm 2 mps 731 mmHg 71%
04:00 +27°C° 0 mm 2 mps 732 mmHg 72%
05:00 +27°C° 0 mm 2 mps 732 mmHg 73%
06:00 +27°C° 0 mm 2 mps 732 mmHg 74%
07:00 +28°C° 0 mm 2 mps 732 mmHg 70%
08:00 +30°C° 0 mm 3 mps 733 mmHg 66%
09:00 +32°C° 0 mm 4 mps 733 mmHg 61%
10:00 +34°C° 0 mm 3 mps 733 mmHg 55%
11:00 +35°C° 0 mm 3 mps 733 mmHg 49%
12:00 +37°C° 0 mm 3 mps 732 mmHg 43%
13:00 +37°C° 0 mm 2 mps 732 mmHg 41%
14:00 +37°C° 0 mm 1 mps 731 mmHg 39%
15:00 +37°C° 0 mm 1 mps 731 mmHg 37%
16:00 +36°C° 0 mm 1 mps 731 mmHg 41%
17:00 +35°C° 0 mm 2 mps 730 mmHg 46%
18:00 +34°C° 0 mm 2 mps 730 mmHg 50%
19:00 +33°C° 0.1 mm 3 mps 731 mmHg 53%
20:00 +33°C° 0.1 mm 3 mps 731 mmHg 56%
21:00 +32°C° 0.1 mm 4 mps 732 mmHg 59%
22:00 +30°C° 0 mm 4 mps 732 mmHg 62%
23:00 +29°C° 0 mm 4 mps 732 mmHg 64%

30 September, Wednesday

Time Temperature Precipitation Wind Pressure Humidity
00:00 +29°C° 0 mm 4 mps 731 mmHg 67%
01:00 +28°C° 0 mm 4 mps 731 mmHg 70%
02:00 +28°C° 0 mm 4 mps 731 mmHg 72%
03:00 +28°C° 0 mm 4 mps 731 mmHg 74%
04:00 +27°C° 0 mm 4 mps 731 mmHg 76%
05:00 +27°C° 0 mm 3 mps 732 mmHg 78%
06:00 +27°C° 0 mm 3 mps 732 mmHg 80%
07:00 +28°C° 0.4 mm 4 mps 732 mmHg 76%
08:00 +29°C° 0.4 mm 4 mps 733 mmHg 72%
09:00 +30°C° 0.4 mm 5 mps 733 mmHg 68%
10:00 +33°C° 0 mm 5 mps 733 mmHg 62%
11:00 +34°C° 0 mm 5 mps 733 mmHg 56%
12:00 +36°C° 0 mm 4 mps 732 mmHg 49%
13:00 +36°C° 0 mm 4 mps 731 mmHg 47%
14:00 +37°C° 0 mm 3 mps 731 mmHg 45%
15:00 +37°C° 0 mm 3 mps 730 mmHg 43%
16:00 +36°C° 0 mm 3 mps 730 mmHg 47%
17:00 +35°C° 0 mm 3 mps 730 mmHg 51%
18:00 +34°C° 0 mm 3 mps 730 mmHg 54%
19:00 +33°C° 0.5 mm 3 mps 730 mmHg 59%
20:00 +31°C° 0.5 mm 3 mps 731 mmHg 64%
21:00 +30°C° 0.5 mm 3 mps 731 mmHg 69%
22:00 +29°C° 0.1 mm 3 mps 731 mmHg 72%
23:00 +29°C° 0.1 mm 4 mps 731 mmHg 75%

1 October, Thursday

Time Temperature Precipitation Wind Pressure Humidity
00:00 +28°C° 0.1 mm 4 mps 731 mmHg 78%
01:00 +28°C° 0 mm 4 mps 730 mmHg 81%
02:00 +27°C° 0 mm 4 mps 730 mmHg 84%
03:00 +27°C° 0 mm 4 mps 729 mmHg 87%
04:00 +26°C° 0 mm 4 mps 730 mmHg 88%
05:00 +26°C° 0 mm 4 mps 730 mmHg 89%
06:00 +26°C° 0 mm 3 mps 730 mmHg 90%
07:00 +27°C° 0 mm 4 mps 731 mmHg 85%
08:00 +28°C° 0 mm 4 mps 732 mmHg 79%
09:00 +29°C° 0 mm 5 mps 733 mmHg 73%
10:00 +30°C° 0 mm 5 mps 732 mmHg 69%
11:00 +32°C° 0 mm 5 mps 732 mmHg 66%
12:00 +33°C° 0 mm 5 mps 731 mmHg 62%
13:00 +33°C° 0 mm 5 mps 731 mmHg 60%
14:00 +34°C° 0 mm 5 mps 730 mmHg 58%
15:00 +34°C° 0 mm 5 mps 730 mmHg 57%
16:00 +33°C° 0 mm 4 mps 730 mmHg 58%
17:00 +31°C° 0 mm 3 mps 730 mmHg 59%
18:00 +30°C° 0 mm 2 mps 729 mmHg 60%
19:00 +29°C° 0 mm 2 mps 730 mmHg 63%
20:00 +29°C° 0 mm 1 mps 730 mmHg 66%
21:00 +28°C° 0 mm 1 mps 730 mmHg 68%
22:00 +28°C° 0 mm 1 mps 731 mmHg 68%
23:00 +28°C° 0 mm 2 mps 731 mmHg 69%
Show more